User: anonymous   Login
Location: Unspecified
(0.0000°N, 0.0000°E)
Time: 13:04:41
(UTC+02:00)
Language:

Cosmos 1703 - Orbit

View from above orbital plane
View from above orbital plane
View from above satellite
View from above satellite

Ground track
Ground track

The orbit data is extracted from the following two-line orbital elements,

1 16262U 85108A   17290.51566570 +.00000786 +00000-0 +45851-4 0  9991
2 16262 082.4743 129.8089 0010691 204.6839 155.3881 15.10495628737103
Epoch (UTC): 17 October 2017 12:22:33
Eccentricity: 0.0010691
inclination: 82.4743°
perigee height: 527 km
apogee height: 542 km
right ascension of ascending node: 129.8089°
argument of perigee: 204.6839°
revolutions per day: 15.10495628
mean anomaly at epoch: 155.3881°
orbit number at epoch: 73710

The dashed part of the orbit path shows where the satellite is in the earth's shadow,  

DLR